This demonstration page uses our WeatherBlox Daily Observations layout. Learn more.

Left ArrowRight Arrow

39.29038, -76.61219

Hourly Observations for January 13, 2017

Temp ( °F °C ) Dew Point ( °F °C ) Humidity (%) Winds ( mph kmh ) Pressure ( in mb ) Visibility ( mi km ) Precip ( " mm )
12:54 am 00:54 undefined 63 17.2 50 10 63 63 undefined N/A 30.18 1022 N/A 0.00 0.00
1:54 am 01:54 undefined 63 17.2 50 10 63 63 undefined N/A 30.21 1023 N/A 0.00 0.00
2:54 am 02:54 undefined 62 16.7 50 10 65 65 undefined N/A 30.23 1024 N/A 0.00 0.00
3:54 am 03:54 undefined 61 16.1 52 11.1 72 72 undefined N/A 30.22 1024 N/A 0.00 0.00
4:54 am 04:54 undefined 61 16.1 50 10 67 67 undefined N/A 30.26 1025 N/A 0.00 0.00
5:54 am 05:54 undefined 59 15 44 6.7 58 58 undefined N/A 30.30 1026 N/A 0.00 0.00
6:54 am 06:54 undefined 56 13.3 41 5 57 57 undefined N/A 30.34 1027 N/A 0.00 0.00
7:54 am 07:54 undefined 52 11.1 37 2.8 57 57 undefined N/A 30.37 1029 N/A 0.00 0.00
8:54 am 08:54 undefined 50 10 35 1.7 57 57 undefined N/A 30.44 1031 N/A 0.00 0.00
9:54 am 09:54 undefined 49 9.4 33 0.6 55 55 undefined N/A 30.48 1032 N/A 0.00 0.00
10:54 am 10:54 undefined 49 9.4 32 0 52 52 undefined N/A 30.51 1033 N/A 0.00 0.00
11:54 am 11:54 undefined 50 10 27 -2.8 41 41 undefined N/A 30.50 1033 N/A 0.00 0.00
12:54 pm 12:54 undefined 52 11.1 26 -3.3 37 37 undefined N/A 30.49 1033 N/A 0.00 0.00
1:54 pm 13:54 undefined 52 11.1 26 -3.3 37 37 undefined N/A 30.50 1033 N/A 0.00 0.00
2:54 pm 14:54 undefined 51 10.6 24 -4.4 35 35 undefined N/A 30.50 1033 N/A 0.00 0.00
3:54 pm 15:54 undefined 50 10 21 -6.1 32 32 undefined N/A 30.53 1034 N/A 0.00 0.00
4:54 pm 16:54 undefined 47 8.3 21 -6.1 36 36 undefined N/A 30.56 1035 N/A 0.00 0.00
5:54 pm 17:54 undefined 46 7.8 19 -7.2 34 34 undefined N/A 30.59 1036 N/A 0.00 0.00
6:54 pm 18:54 undefined 45 7.2 21 -6.1 39 39 undefined N/A 30.61 1037 N/A 0.00 0.00
7:54 pm 19:54 undefined 45 7.2 20 -6.7 37 37 undefined N/A 30.64 1038 N/A 0.00 0.00
8:54 pm 20:54 undefined 44 6.7 20 -6.7 38 38 undefined N/A 30.65 1038 N/A 0.00 0.00
9:54 pm 21:54 undefined 43 6.1 20 -6.7 40 40 undefined N/A 30.67 1039 N/A 0.00 0.00
10:54 pm 22:54 undefined 43 6.1 20 -6.7 40 40 undefined N/A 30.68 1039 N/A 0.00 0.00
11:54 pm 23:54 undefined 42 5.6 20 -6.7 41 41 undefined N/A 30.68 1039 N/A 0.00 0.00

Powered by AerisWeather